GW3491 Weather Reports


Display with metric or nautical units.
time (UTC)temp
F
wind
direction
speed
MPH
gust
MPH
rain 1hr
in
rain 24hr
in
rain mn
in
humidity
%
barometer
mb
20260507050612 50 331 3.0 3.0 0.00 0.00 0.00 35 997.4
20260507050109 50 340 2.0 3.0 0.00 0.00 0.00 34 998.1
20260507045605 50 288 1.0 3.0 0.00 0.00 0.00 35 998.4
20260507045102 50 268 2.0 4.0 0.00 0.00 0.00 34 998.4
20260507044559 50 292 4.0 6.0 0.00 0.00 0.00 34 998.1
20260507044056 50 286 4.0 4.0 0.00 0.00 0.00 35 998.1
20260507043551 50 272 4.0 4.0 0.00 0.00 0.00 35 998.1
20260507043049 50 280 3.0 7.0 0.00 0.00 0.00 35 997.7
20260507042545 51 278 6.0 7.0 0.00 0.00 0.00 35 997.7
20260507042041 51 289 5.0 7.0 0.00 0.00 0.00 34 997.7
20260507041538 51 291 4.0 7.0 0.00 0.00 0.00 35 997.7
20260507041035 51 276 4.0 7.0 0.00 0.00 0.00 36 997.7
20260507040531 51 273 4.0 8.0 0.00 0.00 0.00 37 997.7
20260507040027 51 258 6.0 7.0 0.00 0.14 0.14 40 997.7
20260507035523 51 265 5.0 6.0 0.00 0.14 0.14 39 997.7
20260507035020 52 263 7.0 9.0 0.00 0.14 0.14 38 997.7
20260507034517 52 279 6.0 7.0 0.05 0.14 0.14 37 997.7
20260507034015 52 289 4.0 6.0 0.12 0.14 0.14 36 997.7
20260507033513 53 282 2.0 7.0 0.07 0.13 0.13 36 997.7
20260507033010 53 273 4.0 7.0 0.00 0.12 0.12 35 998.1
20260507032506 54 281 5.0 9.0 0.00 0.12 0.12 32 998.1
20260507032003 54 270 6.0 9.0 0.00 0.12 0.12 33 998.1
20260507031459 54 285 3.0 6.0 0.00 0.12 0.12 34 997.7
20260507030956 54 296 2.0 6.0 0.00 0.12 0.12 34 998.1
20260507030453 54 267 5.0 8.0 0.00 0.12 0.12 33 997.7
20260507025950 54 274 5.0 7.0 0.00 0.12 0.12 35 997.4
20260507025447 54 281 5.0 7.0 0.00 0.12 0.12 35 997.4
20260507024945 54 263 3.0 6.0 0.00 0.12 0.12 35 997.0
20260507024442 54 278 5.0 6.0 0.00 0.12 0.12 38 997.4
20260507023938 55 282 3.0 6.0 0.05 0.12 0.12 38 997.4
20260507023435 55 278 3.0 6.0 0.05 0.12 0.12 38 997.4
20260507022932 55 274 4.0 7.0 0.00 0.11 0.11 38 997.4
20260507022429 56 255 3.0 4.0 0.00 0.11 0.11 39 997.7
20260507021925 56 284 3.0 6.0 0.07 0.11 0.11 37 997.7
20260507021420 56 287 3.0 6.0 0.07 0.11 0.11 37 997.7
20260507020918 57 283 3.0 4.0 0.00 0.10 0.10 36 997.4
20260507020414 57 276 4.0 6.0 0.00 0.10 0.10 36 997.7
20260507015912 58 267 4.0 6.0 0.00 0.10 0.10 38 997.7
20260507015410 59 297 2.0 6.0 0.00 0.10 0.10 36 997.7
20260507014907 59 297 1.0 2.0 0.00 0.10 0.10 36 997.0
20260507014403 59 281 1.0 1.0 0.00 0.10 0.10 36 997.0
20260507013859 59 289 0.0 1.0 0.00 0.10 0.10 36 997.4
20260507013356 59 283 1.0 2.0 0.00 0.10 0.10 37 997.4
20260507012854 59 292 0.0 1.0 0.00 0.10 0.10 37 997.0
20260507012349 59 264 1.0 2.0 0.00 0.10 0.10 37 997.4
20260507011847 59 292 0.0 0.0 0.00 0.10 0.10 37 997.4
20260507011344 59 320 1.0 2.0 0.00 0.10 0.10 37 997.4
20260507010837 59 293 0.0 0.0 0.00 0.10 0.10 37 997.4
20260507010333 59 291 0.0 2.0 0.00 0.10 0.10 36 997.4
20260507005831 59 294 0.0 1.0 0.00 0.10 0.10 36 997.4
20260507005327 59 296 0.0 1.0 0.00 0.10 0.10 36 997.4
20260507004819 59 285 0.0 0.0 0.00 0.10 0.10 36 997.4
20260507004316 59 252 1.0 3.0 0.00 0.10 0.10 36 997.7
20260507003813 59 243 1.0 2.0 0.00 0.10 0.10 37 997.4
20260507003308 59 279 0.0 1.0 0.00 0.10 0.10 37 997.4
20260507002803 59 222 0.0 1.0 0.00 0.10 0.10 37 997.0
20260507002300 59 293 0.0 2.0 0.00 0.10 0.10 37 997.0
20260507001757 59 276 1.0 1.0 0.00 0.10 0.10 37 997.0
20260507001255 59 288 1.0 3.0 0.00 0.10 0.10 36 997.0
20260507000750 59 275 1.0 2.0 0.00 0.10 0.10 36 997.0
20260507000246 59 267 2.0 2.0 0.00 0.10 0.10 36 997.0
20260506235743 59 288 0.0 1.0 0.00 0.10 0.10 37 997.0
20260506235238 59 286 0.0 3.0 0.00 0.10 0.10 35 997.4
20260506234736 59 233 1.0 2.0 0.00 0.10 0.10 35 997.0
20260506234233 59 242 4.0 4.0 0.00 0.10 0.10 35 997.4
20260506233731 59 262 1.0 3.0 0.00 0.10 0.10 35 997.4
20260506233227 59 258 4.0 6.0 0.00 0.10 0.10 35 997.4
20260506232724 59 275 1.0 6.0 0.00 0.10 0.10 36 997.0
20260506232218 59 254 3.0 3.0 0.00 0.10 0.10 37 997.4
20260506231716 59 280 1.0 3.0 0.00 0.10 0.10 38 997.0
20260506231214 59 270 2.0 6.0 0.00 0.10 0.10 38 997.4
20260506230710 59 180 1.0 4.0 0.00 0.10 0.10 38 997.4
20260506230208 59 226 2.0 6.0 0.00 0.10 0.10 39 997.4
20260506225704 59 222 2.0 3.0 0.00 0.10 0.10 39 997.4
20260506225201 59 291 1.0 2.0 0.00 0.10 0.10 40 997.4
20260506224657 59 270 1.0 1.0 0.00 0.10 0.10 40 997.0
20260506224154 59 284 1.0 3.0 0.00 0.10 0.10 39 997.0
20260506223651 60 286 1.0 2.0 0.00 0.10 0.10 39 997.4
20260506223146 60 169 2.0 3.0 0.00 0.10 0.10 39 997.4
20260506222644 60 282 0.0 2.0 0.00 0.10 0.10 40 997.4
20260506222139 60 356 0.0 3.0 0.00 0.10 0.10 40 997.4
20260506221637 60 288 0.0 2.0 0.00 0.10 0.10 40 997.4
20260506221135 60 272 1.0 4.0 0.00 0.10 0.10 40 997.4
20260506220632 60 295 0.0 2.0 0.00 0.10 0.10 41 997.4
20260506220127 60 279 1.0 3.0 0.00 0.10 0.10 42 997.4
20260506215624 60 290 0.0 2.0 0.00 0.10 0.10 43 997.7
20260506215119 60 276 0.0 2.0 0.00 0.10 0.10 43 997.7
20260506214616 60 283 0.0 2.0 0.00 0.10 0.10 46 997.7
20260506214114 60 254 2.0 3.0 0.05 0.10 0.10 47 997.7
20260506213612 60 292 0.0 2.0 0.05 0.10 0.10 47 997.7
20260506213109 60 257 0.0 2.0 0.00 0.09 0.09 48 998.1
20260506212606 60 249 1.0 3.0 0.00 0.09 0.09 48 998.1
20260506212101 60 279 0.0 2.0 0.00 0.09 0.09 50 998.1
20260506211557 60 345 1.0 1.0 0.00 0.09 0.09 50 997.7
20260506211054 60 274 1.0 1.0 0.00 0.09 0.09 50 998.1
20260506210550 60 228 2.0 4.0 0.00 0.09 0.09 50 998.1
20260506210047 60 270 1.0 3.0 0.00 0.09 0.09 50 998.4
20260506205544 60 262 0.0 1.0 0.00 0.09 0.09 52 998.4
20260506205039 60 294 0.0 1.0 0.00 0.09 0.09 51 998.4
20260506204537 60 286 1.0 2.0 0.00 0.09 0.09 50 998.4
20260506204034 60 294 0.0 0.0 0.07 0.09 0.09 48 998.4
20260506203532 60 292 0.0 0.0 0.07 0.09 0.09 47 998.4
20260506203029 60 291 0.0 0.0 0.05 0.08 0.08 45 998.4
20260506202526 60 295 0.0 0.0 0.12 0.08 0.08 44 998.1
20260506202022 60 295 0.0 0.0 0.14 0.07 0.07 43 998.4
20260506201520 60 292 0.0 0.0 0.07 0.06 0.06 43 998.4
20260506201016 60 291 0.0 0.0 0.05 0.05 0.05 42 998.4
20260506200512 60 287 0.0 1.0 0.00 0.05 0.05 41 998.7
20260506200009 60 288 0.0 0.0 0.00 0.04 0.04 41 998.4
20260506195506 60 279 1.0 2.0 0.00 0.04 0.04 41 998.1
20260506194956 60 291 0.0 1.0 0.00 0.04 0.04 41 998.4
20260506194453 60 288 0.0 1.0 0.00 0.04 0.04 40 998.7
20260506193945 60 290 0.0 2.0 0.00 0.04 0.04 40 998.7
20260506193442 60 291 0.0 2.0 0.00 0.04 0.04 39 999.1
20260506192938 60 283 0.0 1.0 0.00 0.04 0.04 39 999.1
20260506192436 60 260 1.0 2.0 0.00 0.04 0.04 39 999.1
20260506191932 60 69 2.0 3.0 0.00 0.04 0.04 39 999.1
20260506191429 60 265 1.0 4.0 0.07 0.04 0.04 38 999.1
20260506190925 61 257 3.0 3.0 0.00 0.04 0.04 39 999.7
20260506190422 61 328 2.0 3.0 0.05 0.03 0.03 38 999.4
20260506185919 61 233 2.0 3.0 0.05 0.03 0.03 38 999.4
20260506185416 61 242 1.0 2.0 0.00 0.02 0.02 37 999.1
20260506184913 61 289 0.0 1.0 0.07 0.02 0.02 37 999.4
20260506184410 61 294 0.0 1.0 0.07 0.02 0.02 37 999.4
20260506183908 62 285 0.0 1.0 0.05 0.01 0.01 36 999.4
20260506183403 62 279 1.0 2.0 0.05 0.01 0.01 35 999.7
20260506182900 62 253 3.0 4.0 0.00 0.00 0.00 34 999.7
20260506182357 62 250 3.0 4.0 0.00 0.00 0.00 33 999.1
20260506181854 62 254 3.0 4.0 0.00 0.00 0.00 31 999.7
20260506181352 64 259 4.0 7.0 0.00 0.00 0.00 28 999.7
20260506180849 64 263 4.0 4.0 0.00 0.00 0.00 26 999.4
20260506180345 65 325 1.0 2.0 0.00 0.00 0.00 25 999.1
20260506175842 66 160 2.0 4.0 0.00 0.00 0.00 23 999.4
20260506175339 68 257 3.0 7.0 0.00 0.00 0.00 22 999.1
20260506174836 69 272 1.0 2.0 0.00 0.00 0.00 20 998.7
20260506174333 69 279 3.0 4.0 0.00 0.00 0.00 20 999.1
20260506173831 69 285 1.0 3.0 0.00 0.00 0.00 20 998.7
20260506173327 70 286 3.0 10.0 0.00 0.00 0.00 18 999.1
20260506172824 70 240 2.0 6.0 0.00 0.00 0.00 19 999.1
20260506172321 70 263 3.0 8.0 0.00 0.00 0.00 19 999.1
20260506171818 70 256 3.0 4.0 0.00 0.00 0.00 19 999.1
20260506171315 70 279 1.0 4.0 0.00 0.00 0.00 19 999.1
20260506170813 69 246 2.0 2.0 0.00 0.00 0.00 20 999.1
20260506170309 70 265 2.0 3.0 0.00 0.00 0.00 20 999.4
20260506165808 70 225 1.0 1.0 0.00 0.00 0.00 20 999.1
20260506165306 69 287 0.0 1.0 0.00 0.00 0.00 20 999.4
20260506164802 69 293 0.0 0.0 0.00 0.00 0.00 20 999.1
20260506164258 69 271 2.0 4.0 0.00 0.00 0.00 20 999.4
20260506163755 69 288 0.0 1.0 0.00 0.00 0.00 20 999.7
20260506163250 68 272 1.0 2.0 0.00 0.00 0.00 20 1000.1
20260506162746 68 249 3.0 3.0 0.00 0.00 0.00 20 1000.1
20260506162244 68 259 2.0 4.0 0.00 0.00 0.00 20 1000.1
20260506161741 68 255 1.0 3.0 0.00 0.00 0.00 21 1000.1
20260506161239 68 252 2.0 4.0 0.00 0.00 0.00 21 1000.4
20260506160736 68 238 3.0 3.0 0.00 0.00 0.00 21 1000.8
20260506160232 67 270 2.0 3.0 0.00 0.00 0.00 22 1000.8
20260506155731 68 261 1.0 3.0 0.00 0.00 0.00 22 1000.8
20260506155228 67 240 1.0 2.0 0.00 0.00 0.00 22 1000.8
20260506153340 67 292 0.0 3.0 0.00 0.00 0.00 22 1001.1
20260506152837 67 289 1.0 3.0 0.00 0.00 0.00 22 1001.1
20260506152335 67 277 1.0 2.0 0.00 0.00 0.00 22 1001.1
20260506151834 67 276 2.0 3.0 0.00 0.00 0.00 22 1001.1
20260506151330 68 217 1.0 4.0 0.00 0.00 0.00 22 1001.1
20260506150827 67 289 0.0 3.0 0.00 0.00 0.00 22 1001.1
20260506150324 67 289 0.0 3.0 0.00 0.00 0.00 22 1001.4
20260506145820 66 248 1.0 4.0 0.00 0.00 0.00 22 1001.1
20260506145317 66 282 2.0 8.0 0.00 0.00 0.00 23 1000.8
20260506144814 66 257 5.0 8.0 0.00 0.00 0.00 23 1000.8
20260506144311 66 229 3.0 3.0 0.00 0.00 0.00 23 1001.1
20260506143809 66 238 2.0 3.0 0.00 0.00 0.00 23 1001.1
20260506143306 66 236 2.0 2.0 0.00 0.00 0.00 24 1000.8
20260506142804 65 292 1.0 4.0 0.00 0.00 0.00 24 1001.1
20260506142301 65 255 4.0 8.0 0.00 0.00 0.00 24 1000.8
20260506141800 65 266 1.0 3.0 0.00 0.00 0.00 24 1000.8
20260506141258 65 282 1.0 6.0 0.00 0.00 0.00 24 1000.8
20260506140755 65 252 1.0 3.0 0.00 0.00 0.00 24 1001.1
20260506140252 64 276 1.0 2.0 0.00 0.00 0.00 24 1001.1
20260506135749 64 255 4.0 4.0 0.00 0.00 0.00 24 1001.4
20260506135245 64 243 4.0 4.0 0.00 0.00 0.00 23 1001.1
20260506134742 64 270 1.0 2.0 0.00 0.00 0.00 23 1001.1
20260506134239 64 291 0.0 3.0 0.00 0.00 0.00 23 1001.4
20260506133736 64 178 2.0 6.0 0.00 0.00 0.00 23 1001.4
20260506133232 63 323 1.0 4.0 0.00 0.00 0.00 23 1001.4
20260506132729 63 232 1.0 2.0 0.00 0.00 0.00 23 1001.4
20260506132227 63 250 6.0 7.0 0.00 0.00 0.00 23 1001.1
20260506131725 63 236 3.0 4.0 0.00 0.00 0.00 23 1001.1
20260506131220 63 277 1.0 3.0 0.00 0.00 0.00 23 1001.8
20260506130717 63 275 1.0 3.0 0.00 0.00 0.00 24 1001.4
20260506130214 63 222 2.0 6.0 0.00 0.00 0.00 24 1001.4
20260506125712 63 275 1.0 3.0 0.00 0.00 0.00 24 1001.4
20260506125210 63 231 4.0 4.0 0.00 0.00 0.00 23 1001.4
20260506124708 63 256 4.0 6.0 0.00 0.00 0.00 23 1001.4
20260506124205 63 270 2.0 4.0 0.00 0.00 0.00 23 1001.1
20260506123702 63 283 1.0 2.0 0.00 0.00 0.00 24 1001.4
20260506123202 63 167 2.0 3.0 0.00 0.00 0.00 23 1001.1
20260506122658 62 286 0.0 1.0 0.00 0.00 0.00 24 1001.4
20260506122155 62 258 1.0 8.0 0.00 0.00 0.00 24 1001.4
20260506121653 62 266 2.0 4.0 0.00 0.00 0.00 24 1001.4
20260506121149 62 266 2.0 3.0 0.00 0.00 0.00 24 1001.4
20260506120647 62 279 3.0 4.0 0.00 0.00 0.00 25 1001.1
20260506120144 61 293 0.0 1.0 0.00 0.00 0.00 24 1001.4
20260506115643 60 290 0.0 2.0 0.00 0.00 0.00 26 1001.8
20260506115140 60 293 0.0 0.0 0.00 0.00 0.00 26 1001.4
20260506114637 60 292 0.0 0.0 0.00 0.00 0.00 26 1002.1
20260506114135 60 292 0.0 0.0 0.00 0.00 0.00 27 1001.4
20260506113634 60 292 0.0 0.0 0.00 0.00 0.00 27 1001.8
20260506113130 59 304 0.0 1.0 0.00 0.00 0.00 27 1001.8
20260506112626 59 296 0.0 0.0 0.00 0.00 0.00 27 1002.1
20260506112124 59 295 0.0 1.0 0.00 0.00 0.00 27 1001.8
20260506111622 59 340 0.0 1.0 0.00 0.00 0.00 26 1002.1
20260506111119 59 296 0.0 0.0 0.00 0.00 0.00 28 1002.5
20260506110617 59 296 0.0 0.0 0.00 0.00 0.00 29 1002.1
20260506110114 59 296 0.0 0.0 0.00 0.00 0.00 28 1001.8
20260506105610 58 296 0.0 0.0 0.00 0.00 0.00 28 1002.1
20260506105107 58 294 0.0 0.0 0.00 0.00 0.00 27 1002.5
20260506104606 58 294 0.0 0.0 0.00 0.00 0.00 27 1002.5
20260506104103 58 293 0.0 0.0 0.00 0.00 0.00 27 1002.1
20260506103600 58 294 0.0 0.0 0.00 0.00 0.00 26 1002.1
20260506103056 59 293 0.0 0.0 0.00 0.00 0.00 26 1001.8
20260506102555 58 293 0.0 0.0 0.00 0.00 0.00 26 1002.5
20260506102052 58 291 0.0 0.0 0.00 0.00 0.00 26 1002.1
20260506101548 58 289 0.0 0.0 0.00 0.00 0.00 26 1002.1
20260506101046 58 290 0.0 0.0 0.00 0.00 0.00 26 1001.4
20260506100544 58 289 0.0 0.0 0.00 0.00 0.00 26 1001.8
20260506100041 58 284 0.0 0.0 0.00 0.00 0.00 26 1002.1
20260506095540 58 288 0.0 0.0 0.00 0.00 0.00 25 1002.1
20260506095036 58 289 0.0 0.0 0.00 0.00 0.00 25 1001.4
20260506094534 58 287 0.0 0.0 0.00 0.00 0.00 25 1001.4
20260506094032 59 287 0.0 0.0 0.00 0.00 0.00 25 1001.4
20260506093530 59 295 0.0 0.0 0.00 0.00 0.00 25 1001.8
20260506093027 59 346 0.0 0.0 0.00 0.00 0.00 25 1001.8
20260506092524 59 295 0.0 0.0 0.00 0.00 0.00 25 1001.8
20260506092020 58 294 0.0 0.0 0.00 0.00 0.00 25 1001.4
20260506091519 58 281 0.0 0.0 0.00 0.00 0.00 25 1001.4
20260506091016 58 294 0.0 0.0 0.00 0.00 0.00 25 1001.4
20260506090514 58 339 0.0 0.0 0.00 0.00 0.00 25 1001.8
20260506090010 58 295 0.0 0.0 0.00 0.00 0.00 24 1001.8
20260506085507 59 297 0.0 1.0 0.00 0.00 0.00 24 1001.8
20260506085004 59 338 0.0 0.0 0.00 0.00 0.00 22 1001.8
20260506084501 60 288 0.0 0.0 0.00 0.00 0.00 21 1001.4
20260506083956 60 292 0.0 0.0 0.00 0.00 0.00 21 1001.4
20260506083454 60 285 0.0 1.0 0.00 0.00 0.00 21 1001.8
20260506082951 60 286 0.0 1.0 0.00 0.00 0.00 22 1001.4
20260506082448 61 291 0.0 0.0 0.00 0.00 0.00 21 1001.8
20260506081943 61 274 0.0 0.0 0.00 0.00 0.00 20 1001.8
20260506081443 61 287 0.0 0.0 0.00 0.00 0.00 20 1001.4
20260506080939 61 296 0.0 0.0 0.00 0.00 0.00 20 1001.4
20260506080436 61 286 0.0 1.0 0.00 0.00 0.00 20 1001.4
20260506073420 62 288 0.0 1.0 0.00 0.00 0.00 20 1001.4
20260506072918 61 221 1.0 2.0 0.00 0.00 0.00 20 1001.4
20260506072414 61 291 0.0 1.0 0.00 0.00 0.00 20 1001.4
20260506071912 61 288 0.0 0.0 0.00 0.00 0.00 21 1001.8
20260506071410 60 291 0.0 1.0 0.00 0.00 0.00 21 1001.4
20260506070907 61 295 0.0 1.0 0.00 0.00 0.00 20 1001.4
20260506070404 61 297 1.0 2.0 0.00 0.00 0.00 20 1001.4
20260506062341 62 259 1.0 3.0 0.00 0.00 0.00 19 1001.1
20260506061837 62 228 4.0 4.0 0.00 0.00 0.00 19 1000.8
20260506061334 63 274 1.0 2.0 0.00 0.00 0.00 18 1000.8
20260506060832 63 232 2.0 2.0 0.00 0.00 0.00 18 1000.8
20260506060330 62 33 1.0 2.0 0.00 0.00 0.00 19 1000.8
20260506051301 62 263 2.0 3.0 0.00 0.00 0.00 20 1001.1